Vertical_Velocity
-1 -2 -4 1 1 -4 -10 -5 -8 -4 -1 -14 -8 -5 -4 -6 -7 -4 -3 -5 -4 -3 -1 -1 -1 -1 -3 -4 -1 -5 -12 -5 2 -13 2 12 -0 2 -4 9 0 3 -13
3 0 -5 1 3 0 1 6 -0 -8 -10 -1 -8 -2 -2 0 -1 -2 -3 -1 -0 1 2 -0 -1 -1 -2 -1 5 8 14 9 -3 -8 1 -6 -5 -0 8 3 8 -9 2
-2 -2 -4 -1 -11 6 18 14 9 -1 -1 2 -3 -8 -5 -1 -2 -1 -1 1 2 1 0 -3 -5 -3 -5 -2 1 2 9 2 11 9 -5 -1 -6 -1 -6 5 0 2 -16
1 9 5 4 5 24 -4 -11 -2 -3 -3 2 3 -6 -8 -0 -4 -1 -1 -2 -2 -1 -2 -2 -3 -1 -3 -2 -1 -1 3 0 1 -3 3 -3 1 -9 5 -1 -6 5 -1
-1 -1 4 23 4 -5 1 -14 -13 -6 -2 1 2 -8 0 -2 -1 4 2 -1 -1 -2 -1 -4 -6 -2 3 11 12 1 5 11 -0 -3 -3 -0 -5 -8 0 -4 -2 -5 0
-6 -7 -2 4 21 14 6 -1 5 8 -7 -2 1 -1 1 -2 -1 3 2 -0 -1 -3 -6 -6 -5 -1 5 3 -2 3 9 -1 -2 -3 -5 -3 -9 -4 -1 -1 2 -2 -13
-7 -2 -4 -4 -0 -1 -23 3 14 6 -0 -6 4 -3 -1 -0 4 -2 -2 -2 -3 -3 -3 -5 -3 2 -0 -1 0 -2 -2 -3 2 1 -3 -4 -5 -3 -0 -6 -1 2 -1
-8 -1 -2 -4 -3 -4 -16 2 7 2 -7 8 -1 1 -1 3 -1 1 -1 2 2 -1 -3 -3 0 -2 -2 -0 -3 -3 -2 -1 1 2 -0 -2 -3 -0 -1 0 -0 -0 -2
-6 -5 1 -1 -0 -1 -7 6 1 -7 5 0 3 1 0 0 -2 -1 -0 -2 -4 -2 -1 -1 1 -3 -3 -0 -2 -1 -3 -5 1 1 3 4 0 2 4 2 -6 -0 -10
-6 -6 -2 -2 5 -1 -12 9 13 8 4 3 1 -2 -1 -2 1 -3 -1 -1 -3 -3 -6 -3 1 3 16 10 -1 -1 -4 -2 -3 -6 -3 -1 -1 -2 1 2 -0 1 5
-2 -3 -5 -4 -1 2 4 10 5 4 1 2 2 1 -2 -1 0 -1 0 -1 -1 -3 -1 -4 -4 -3 -2 1 1 1 -1 -2 -2 -1 -2 -3 -1 -1 -2 -1 0 2 -0
-1 -3 -3 -0 3 5 9 7 -1 0 1 3 0 3 3 -4 -2 -1 2 4 2 0 -2 -1 -0 8 -1 -2 1 8 -1 -0 0 2 2 0 0 -1 -1 1 5 -1 1
-1 -0 2 2 2 -1 0 1 1 2 2 -0 -2 -0 -5 -5 -2 -2 1 -0 -0 -4 -1 3 1 -2 1 2 2 -1 -1 2 3 1 1 2 1 -1 -2 -2 -1 -0 -1
-4 -2 1 -2 -2 3 2 2 1 1 -2 -1 -1 -4 -4 -2 -3 -4 -2 -3 -1 -1 -1 -2 -1 1 3 3 -1 0 0 -1 -1 -1 -1 1 1 2 1 2 -1 0 -0
-2 -1 -1 1 -0 -1 2 2 -0 -0 0 -0 -2 -3 -4 -2 -3 -2 -1 -2 0 0 -1 -0 -3 -3 -2 -2 -1 2 1 -1 -1 0 0 -0 1 1 1 2 6 -0 -0
-2 0 -1 -2 1 1 2 2 2 2 1 -2 -2 1 -1 -1 -2 -2 -3 -2 0 -2 -1 -1 -0 -0 -1 -2 -3 -2 -0 0 1 2 -0 2 0 3 3 1 1 1 1
-2 -0 -0 -2 -1 -0 1 -0 -5 -1 -3 -2 -0 0 -3 1 -5 2 -2 -2 -1 -1 -2 -0 1 0 -0 0 0 1 2 4 3 2 1 -1 3 4 -1 -0 -0 0 0
-1 0 0 -1 0 4 -4 -4 -1 -1 -3 -3 -0 0 1 -2 1 2 -4 -0 -2 -0 -1 -1 -0 0 1 0 0 -1 -1 -2 1 1 2 2 1 0 -1 -1 -1 -1 -0
4 3 2 1 1 -0 -2 1 1 -0 0 -1 2 -2 0 0 0 -2 -4 -1 -1 -1 -1 -1 -0 0 1 2 1 1 1 0 1 1 1 1 -0 -1 1 1 1 -0 1
1 -0 0 -0 3 -8 2 -0 -3 1 0 -1 2 -1 0 4 -1 -3 -2 -2 -1 1 0 -0 -1 -0 1 0 1 0 1 0 -0 0 0 1 0 -0 3 1 1 -1 -2
-1 1 1 2 -0 -3 0 -1 0 -3 -2 -1 -0 -1 -1 0 -0 -3 -2 -0 -2 -1 1 1 -0 -0 -0 0 1 0 0 1 1 0 -0 -0 -0 -2 2 1 1 1 -1
0 1 1 -4 -4 -1 1 -0 -5 -1 1 0 2 -3 -0 1 -1 -0 1 -0 -1 -1 -1 -0 0 -0 -0 -2 -1 0 0 -0 0 1 1 -0 -0 -1 0 -0 -0 -1 -1
1 -0 1 -0 -3 -0 -0 1 -2 -2 -0 -1 -0 -1 -2 -3 -2 -0 1 -1 -1 -1 -1 0 -0 1 1 0 -0 -1 -1 -1 -1 -2 -1 -1 0 -1 0 0 -1 -1 -2
-1 -1 -1 -3 -3 -1 1 -0 0 -0 -3 0 1 4 2 1 0 -1 -1 -0 -2 -0 -1 -0 0 0 0 -0 1 -0 -0 0 0 -0 -1 -0 -0 -1 0 1 1 -1 -1
1 2 2 -1 -2 0 1 1 0 -1 -2 -2 1 1 1 -1 0 -0 -1 -1 -0 -1 -0 -1 0 -0 0 -1 1 0 0 -0 -0 0 0 -0 0 1 -0 0 1 1 1
-2 0 2 -3 -4 -0 0 -0 0 2 -2 -2 -1 -1 1 0 -0 1 -1 -1 0 1 0 -2 0 1 -0 0 -0 -1 -0 0 1 0 0 0 0 0 0 -1 -0 -0 -0
Height
1543 1540 1537 1533 1528 1527 1524 1519 1518 1516 1515 1512 1510 1507 1504 1501 1498 1495 1492 1489 1486 1483 1480 1476 1473 1471 1469 1466 1464 1461 1459 1458 1455 1452 1453 1452 1452 1451 1451 1451 1449 1447 1447
1539 1536 1533 1529 1525 1520 1517 1513 1510 1509 1508 1504 1504 1503 1500 1497 1494 1491 1488 1485 1482 1479 1476 1474 1470 1468 1465 1464 1461 1458 1456 1453 1451 1449 1448 1446 1446 1447 1447 1446 1447 1445 1445
1536 1532 1528 1524 1519 1518 1513 1510 1507 1504 1505 1501 1495 1497 1496 1493 1490 1488 1485 1481 1478 1475 1472 1469 1466 1463 1459 1457 1455 1452 1450 1448 1446 1444 1443 1444 1443 1443 1442 1442 1443 1443 1443
1532 1527 1523 1518 1514 1511 1506 1502 1504 1503 1501 1497 1493 1491 1491 1488 1485 1482 1479 1475 1472 1469 1466 1462 1459 1456 1453 1450 1448 1446 1444 1442 1441 1439 1438 1438 1439 1440 1440 1439 1436 1438 1439
1528 1525 1519 1514 1510 1505 1501 1496 1496 1495 1495 1494 1490 1486 1485 1482 1480 1476 1473 1469 1465 1461 1458 1453 1449 1446 1444 1443 1441 1437 1436 1434 1433 1432 1432 1432 1432 1434 1435 1434 1433 1434 1435
1525 1520 1515 1509 1505 1500 1498 1492 1491 1488 1490 1489 1486 1482 1480 1477 1475 1471 1467 1462 1459 1454 1450 1446 1441 1438 1437 1434 1431 1431 1430 1428 1427 1427 1427 1426 1427 1428 1428 1429 1429 1429 1428
1520 1515 1511 1506 1501 1497 1492 1495 1492 1488 1485 1484 1480 1477 1475 1473 1469 1464 1461 1457 1452 1448 1444 1439 1435 1432 1430 1428 1426 1424 1423 1422 1422 1422 1421 1421 1421 1422 1423 1422 1423 1423 1423
1516 1511 1507 1502 1497 1492 1489 1490 1488 1485 1482 1480 1476 1473 1472 1468 1464 1459 1454 1450 1447 1443 1439 1434 1430 1426 1424 1422 1419 1417 1416 1415 1416 1415 1415 1414 1415 1416 1417 1418 1417 1417 1417
1510 1507 1503 1499 1493 1489 1487 1486 1484 1481 1479 1476 1473 1470 1467 1463 1459 1454 1450 1445 1441 1437 1433 1429 1425 1421 1418 1416 1413 1411 1409 1408 1409 1408 1408 1407 1407 1408 1410 1411 1411 1412 1410
1507 1503 1498 1494 1490 1487 1483 1482 1481 1478 1475 1471 1469 1465 1462 1458 1453 1449 1445 1440 1435 1431 1427 1423 1420 1417 1414 1412 1409 1406 1404 1403 1402 1401 1401 1401 1402 1402 1404 1405 1405 1405 1406
1501 1497 1493 1490 1487 1484 1481 1479 1477 1474 1471 1468 1466 1463 1459 1454 1450 1444 1441 1436 1431 1426 1422 1418 1415 1412 1410 1407 1404 1401 1398 1395 1394 1393 1392 1392 1392 1393 1394 1395 1396 1398 1399
1496 1492 1488 1486 1483 1480 1479 1476 1474 1470 1468 1465 1463 1460 1455 1451 1447 1442 1437 1433 1428 1423 1419 1415 1412 1409 1405 1402 1399 1397 1395 1392 1390 1389 1388 1388 1388 1388 1389 1390 1390 1391 1391
1491 1486 1483 1481 1479 1477 1475 1472 1470 1467 1464 1461 1459 1455 1452 1448 1443 1438 1433 1428 1425 1420 1417 1414 1410 1406 1402 1399 1397 1394 1392 1390 1388 1387 1386 1385 1385 1384 1384 1385 1385 1386 1386
1485 1482 1479 1477 1475 1474 1472 1469 1467 1464 1461 1459 1455 1452 1449 1445 1440 1434 1429 1425 1422 1419 1416 1412 1409 1405 1402 1399 1395 1393 1391 1389 1387 1385 1384 1383 1382 1381 1381 1381 1381 1382 1382
1481 1478 1476 1474 1472 1470 1468 1466 1463 1461 1458 1455 1453 1450 1447 1443 1438 1433 1430 1425 1422 1418 1415 1412 1408 1404 1401 1398 1395 1393 1391 1388 1386 1384 1383 1382 1380 1380 1379 1379 1379 1378 1378
1477 1475 1473 1470 1469 1467 1465 1463 1461 1458 1456 1453 1451 1448 1445 1441 1437 1432 1429 1425 1421 1417 1414 1411 1408 1405 1402 1399 1396 1394 1391 1388 1386 1384 1382 1381 1379 1379 1378 1377 1377 1376 1376
1472 1471 1469 1467 1466 1464 1462 1459 1457 1455 1453 1451 1448 1445 1442 1440 1435 1432 1428 1424 1420 1417 1414 1411 1409 1405 1402 1400 1397 1394 1391 1388 1386 1384 1382 1381 1380 1378 1377 1376 1376 1375 1375
1467 1467 1465 1464 1462 1460 1458 1456 1455 1452 1450 1449 1446 1443 1441 1438 1435 1432 1427 1424 1420 1417 1414 1411 1408 1405 1402 1400 1397 1394 1391 1389 1386 1384 1383 1381 1379 1378 1377 1376 1375 1374 1373
1464 1463 1461 1460 1458 1456 1455 1454 1452 1450 1448 1446 1445 1442 1440 1437 1435 1431 1427 1424 1420 1417 1413 1411 1408 1405 1402 1399 1396 1394 1391 1388 1386 1384 1383 1381 1380 1379 1378 1376 1375 1373 1372
1460 1458 1457 1456 1454 1453 1452 1450 1448 1447 1445 1444 1442 1440 1438 1436 1433 1430 1426 1423 1420 1417 1414 1411 1408 1405 1402 1399 1396 1393 1391 1388 1385 1384 1383 1381 1380 1379 1377 1376 1374 1373 1371
1456 1454 1453 1452 1450 1449 1448 1447 1445 1444 1442 1441 1439 1438 1436 1434 1431 1428 1425 1423 1419 1417 1414 1411 1408 1405 1402 1399 1396 1394 1391 1388 1386 1384 1382 1381 1380 1378 1377 1375 1374 1372 1370
1452 1450 1449 1447 1446 1445 1444 1443 1442 1440 1439 1438 1437 1435 1433 1431 1428 1426 1424 1421 1418 1415 1413 1410 1407 1405 1402 1399 1396 1394 1391 1389 1386 1384 1383 1381 1379 1378 1377 1375 1373 1371 1369
1447 1445 1445 1443 1442 1441 1440 1439 1438 1437 1436 1435 1433 1432 1430 1428 1426 1424 1422 1419 1416 1414 1411 1409 1406 1404 1402 1399 1396 1394 1391 1389 1386 1384 1382 1380 1379 1377 1376 1374 1372 1371 1369
1443 1442 1440 1439 1438 1437 1436 1435 1435 1434 1432 1431 1430 1428 1427 1425 1423 1421 1419 1416 1414 1412 1409 1407 1405 1402 1400 1398 1396 1393 1391 1389 1386 1384 1382 1380 1378 1376 1375 1373 1372 1370 1368
1439 1438 1437 1435 1434 1433 1432 1431 1431 1430 1429 1427 1426 1425 1423 1421 1420 1418 1416 1413 1411 1409 1407 1404 1402 1400 1398 1396 1394 1392 1389 1387 1385 1383 1381 1379 1377 1375 1374 1372 1371 1369 1367
1434 1433 1432 1430 1428 1428 1428 1427 1426 1425 1424 1423 1422 1421 1419 1418 1416 1414 1413 1410 1408 1406 1404 1401 1400 1398 1395 1393 1391 1389 1388 1386 1384 1382 1380 1378 1376 1374 1373 1371 1369 1368 1366